SL-16 DEB, 22406

Orbit data source: Space-Track

SL-16 DEB, 22406 is space debris in LEO originally from a launch on Fri, 25 Dec 1992 UTC launched from the Tyuratam Missile And Space Complex (TTMTR). Debris objects in space refer to the collection of defunct objects orbiting the Earth. Examples of debris include non-operational satellites, rocket bodies, and fragments generated from explosions, collisions, or faulty payload assembly.

Loading next visibility...
Identifier
22406, 1992-093CX
Orbit
LEO
Country
Flag of CISCIS
Related business
Manufacturer
Unknown
Mission
Spacecraft
Bus & Motor
Unknown
Mass
Unknown
Launch date (UTC)
1992-12-25 (33 years ago)
Launch vehicle
Unknown
Launch site
Tyuratam Missile And Space Complex (TTMTR)
Object type
Payload
Rocket body
Debris
Shape & HBR
Unknown shape, 0.1 m
Radar Cross Section
Small (<0.1 m²)

Expand to show TLE details & history
Last TLE update: 13 hours ago

TLE from 13 hours ago
0 SL-16 DEB
1 22406U 92093CX  26132.57734882  .00000203  00000-0  20057-3 0  9997
2 22406  70.7542 251.8677 0173408 322.7565  53.0380 13.83709841678879
Epoch: 2026-05-12T13:51Z
TLE epoch observation values (Epoch: 2026-05-12T13:51:22.938Z)
Latitude
16.39571°
Longitude
179.53743°
Altitude
877.466 km
Speed
7.453 km/s
True Right ascension
17h 10m 55s
True Declination
16° 18' 16"
Sunlit
Object was in full shadow at epoch
Visualization orbit readout
Latitude
Unknown
Longitude
Unknown
Altitude
Unknown
Speed
Unknown
Apparent Right ascension
Unknown
Apparent Declination
Unknown
Sunlit
N/A
Visualization observer readout
Local Sidereal Time
11:30:47
Azimuth
Unknown
Elevation
Unknown
Doppler factor
Unknown
Orbital elements
Apogee altitude
1,075.79 km
Perigee altitude
821.683 km
Semi-major axis
7,326.874 km
Eccentricity
0.01734
Inclination
70.7542°
RAAN
251.8677°
Arg. of periapsis
322.7565°
True anomaly
54.64651°
Mean anomaly
53.038°
Eccentric anomaly
53.84017°
Mean motion
3.46071 °/min
Orbital period
104.02 mins
BSTAR
0.00020057
Loading maneuver chart data...
Computing Atmospheric mass density...
Loading historical data...
Loading historical data...
Loading historical data...
Loading historical data...
Loading historical data...
Loading historical data...
Loading historical data...

Documentation

Showing up to 5 results
|